Weather in Nikolskoye

Russia / Yaroslavl Oblast     58°00′09″N   39°45′55″E
temp.,
°C
wind,
m/s
gust,
m/s
humid.,
%
clouds,
%
prec.,
mm/h
press.,
hPa
HPBL,
m
7 march, sun
sun700:00−14ssw36942 0.0 1009118
03:00−13s4109129 0.0 1005247
06:00−10s61391100 0.1 999675
09:00−7s71393100 0.5 994829
12:00−4s71294100 1.1 991856
15:00−4w51081100 3.7 989960
18:00−9w227890 0.0 99024
21:00−12wsw228187 0.0 99121
8 march, mon
mon800:00−13wsw1287100 0.0 99120
03:00−11sse1296100 0.3 99254
06:00−15ssw119889 0.1 99220
09:00−12n239470 0.1 995128
12:00−8nnw358579 0.0 997408
15:00−7nnw578690 0.1 1001866
18:00−10nnw4893100 0.1 1004507
21:00−13n399496 0.2 1007317
9 march, tue
tue900:00−16nnw389695 0.0 1009218
03:00−20nnw379989 0.1 1011148
06:00−23nnw359856 0.0 1014111
09:00−22nnw359532 0.0 1016236
12:00−18nnw348959 0.0 1016405
15:00−16nnw468879 0.0 1018607
18:00−20nw3896100 0.1 1018279
21:00−23nnw379895 0.1 1021155
10 march, wed
wed1000:00−26nnw239821 0.0 102241
03:00−28nnw239810 0.0 102439
06:00−28nnw23970 0.0 102440
09:00−24nw24930 0.0 1025148
12:00−17nw24800 0.0 1026396
15:00−15wnw35850 0.0 1025442
18:00−19wnw36920 0.0 1024146
21:00−20wnw379333 0.0 1025139
11 march, thu
thu1100:00−21wnw349678 0.0 102578
03:00−22wnw239268 0.0 102546
06:00−23w228732 0.0 102520
09:00−18sw128216 0.0 1024100
12:00−12s23760 0.0 1023288
15:00−10sse36760 0.0 1021457
18:00−13se37860 0.0 1019150
21:00−14se4109338 0.0 1017290